Time,TemperatureF,DewpointF,PressureIn,WindDirection,WindDirectionDegrees,WindSpeedMPH,WindSpeedGustMPH,Humidity,HourlyPrecipIn,Conditions,Clouds,dailyrainin,SoftwareType,DateUTC
2013-09-11 00:23:00,79.0,74.0,30.09,SW,215,2.0,3.0,85,0.00,,,0.00,,2013-09-11 05:23:00,
2013-09-11 00:53:00,79.0,74.0,30.09,South,175,0.0,2.0,85,0.00,,,0.00,,2013-09-11 05:53:00,
2013-09-11 01:22:00,78.0,73.0,30.09,South,175,0.0,0.0,86,0.00,,,0.00,,2013-09-11 06:22:00,
2013-09-11 01:42:00,78.0,73.0,30.09,South,178,0.0,0.0,86,0.00,,,0.00,,2013-09-11 06:42:00,
2013-09-11 01:52:00,78.0,74.0,30.10,South,178,0.0,0.0,87,0.00,,,0.00,,2013-09-11 06:52:00,
2013-09-11 02:12:00,78.0,74.0,30.10,East,96,0.0,1.0,87,0.00,,,0.00,,2013-09-11 07:12:00,
2013-09-11 02:23:00,78.0,74.0,30.10,East,96,0.0,1.0,87,0.00,,,0.00,,2013-09-11 07:23:00,
2013-09-11 02:32:00,78.0,74.0,30.10,East,96,0.0,1.0,87,0.00,,,0.00,,2013-09-11 07:32:00,
2013-09-11 02:42:00,78.0,74.0,30.10,East,96,0.0,1.0,87,0.00,,,0.00,,2013-09-11 07:42:00,
2013-09-11 08:22:00,77.0,75.0,30.14,SE,133,0.0,1.0,95,0.00,,,0.00,,2013-09-11 13:22:00,
2013-09-11 08:52:00,79.0,77.0,30.14,South,182,3.0,3.0,95,0.00,,,0.00,,2013-09-11 13:52:00,
2013-09-11 09:22:00,78.0,75.0,30.14,SSW,208,0.0,1.0,92,0.00,,,0.00,,2013-09-11 14:22:00,
2013-09-11 09:52:00,80.0,75.0,30.14,SSW,213,1.0,3.0,85,0.00,,,0.00,,2013-09-11 14:52:00,
2013-09-11 10:22:00,83.0,75.0,30.13,SSW,212,0.0,3.0,76,0.00,,,0.00,,2013-09-11 15:22:00,
2013-09-11 10:54:00,85.0,74.0,30.13,SE,141,1.0,1.0,70,0.00,,,0.00,,2013-09-11 15:54:00,
2013-09-11 11:13:00,86.0,74.0,30.12,SSW,197,3.0,5.0,68,0.00,,,0.00,,2013-09-11 16:13:00,
2013-09-11 11:23:00,87.0,75.0,30.12,WNW,286,3.0,3.0,68,0.00,,,0.00,,2013-09-11 16:23:00,
2013-09-11 11:53:00,88.0,74.0,30.12,South,186,3.0,3.0,63,0.00,,,0.00,,2013-09-11 16:53:00,
2013-09-11 12:23:00,90.0,74.0,30.10,South,190,2.0,3.0,59,0.00,,,0.00,,2013-09-11 17:23:00,
2013-09-11 12:52:00,91.0,73.0,30.10,WSW,248,2.0,2.0,56,0.00,,,0.00,,2013-09-11 17:52:00,
2013-09-11 13:22:00,92.0,72.0,30.09,South,187,0.0,0.0,52,0.00,,,0.00,,2013-09-11 18:22:00,
2013-09-11 13:52:00,93.0,73.0,30.08,SSW,203,1.0,2.0,52,0.00,,,0.00,,2013-09-11 18:52:00,
2013-09-11 14:11:00,93.0,70.0,30.07,West,276,2.0,2.0,48,0.00,,,0.00,,2013-09-11 19:11:00,
2013-09-11 14:22:00,93.0,72.0,30.06,South,189,1.0,3.0,51,0.00,,,0.00,,2013-09-11 19:22:00,
2013-09-11 14:53:00,94.0,70.0,30.05,WNW,295,1.0,2.0,46,0.00,,,0.00,,2013-09-11 19:53:00,
2013-09-11 15:12:00,94.0,72.0,30.05,SSE,154,3.0,3.0,49,0.00,,,0.00,,2013-09-11 20:12:00,
2013-09-11 15:21:00,95.0,72.0,30.04,West,269,0.0,0.0,48,0.00,,,0.00,,2013-09-11 20:21:00,
2013-09-11 15:52:00,95.0,67.0,30.03,NW,315,0.0,2.0,40,0.00,,,0.00,,2013-09-11 20:52:00,
2013-09-11 16:22:00,95.0,67.0,30.03,West,271,0.0,1.0,40,0.00,,,0.00,,2013-09-11 21:22:00,
2013-09-11 16:54:00,95.0,67.0,30.02,WNW,300,0.0,0.0,40,0.00,,,0.00,,2013-09-11 21:54:00,
2013-09-11 17:13:00,95.0,68.0,30.02,WNW,298,0.0,0.0,41,0.00,,,0.00,,2013-09-11 22:13:00,
2013-09-11 17:24:00,96.0,72.0,30.02,WNW,298,1.0,1.0,46,0.00,,,0.00,,2013-09-11 22:24:00,
2013-09-11 17:54:00,94.0,74.0,30.02,WNW,298,0.0,0.0,53,0.00,,,0.00,,2013-09-11 22:54:00,
2013-09-11 18:22:00,92.0,73.0,30.02,West,263,0.0,0.0,54,0.00,,,0.00,,2013-09-11 23:22:00,
2013-09-11 18:53:00,90.0,75.0,30.02,West,263,0.0,0.0,61,0.00,,,0.00,,2013-09-11 23:53:00,
2013-09-11 19:21:00,87.0,74.0,30.03,West,263,0.0,1.0,66,0.00,,,0.00,,2013-09-12 00:21:00,
2013-09-11 19:42:00,86.0,74.0,30.03,West,263,0.0,0.0,68,0.00,,,0.00,,2013-09-12 00:42:00,
2013-09-11 19:52:00,84.0,74.0,30.04,WSW,243,0.0,1.0,72,0.00,,,0.00,,2013-09-12 00:52:00,
2013-09-11 20:11:00,83.0,73.0,30.04,WSW,243,0.0,0.0,71,0.00,,,0.00,,2013-09-12 01:11:00,
2013-09-11 20:22:00,83.0,73.0,30.04,WSW,243,0.0,0.0,71,0.00,,,0.00,,2013-09-12 01:22:00,
2013-09-11 20:32:00,83.0,73.0,30.04,WSW,243,0.0,0.0,71,0.00,,,0.00,,2013-09-12 01:32:00,
2013-09-11 20:42:00,83.0,73.0,30.04,WSW,243,0.0,0.0,71,0.00,,,0.00,,2013-09-12 01:42:00,